Weather History for Phuket, Thailand

Change the Weather History Date:

Sunday, September 25, 2011

  Actual Average Record
Temperature  
Mean Temperature 83 °F -  
Max Temperature 90 °F 87 °F 93 °F (1996)
Min Temperature 76 °F 76 °F 71 °F (2007)
Cooling Degree Days 18    
Growing Degree Days 33 (Base 50)    
Moisture  
Dew Point 74 °F    
Average Humidity 79    
Maximum Humidity 92    
Minimum Humidity 66    
Precipitation  
Precipitation 0.00 in 0.48 in - ()
Sea Level Pressure  
Sea Level Pressure 29.86 in    
Wind  
Wind Speed 8 mph ()    
Max Wind Speed 15 mph    
Max Gust Speed -    
Visibility 5.3 miles    
Events Rain    
Averages and records for this station are not official NWS values.
T = Trace of Precipitation, MM = Missing Value Source: Averaged Metar Reports

Daily Weather History Graph

Daily Weather History Graph

Search for Another Location

Airport:

Trip Planner

Search our weather history database for the weather conditions in past years. The results will help you decide how hot, cold, wet, or windy it might be!

Date:

Astronomy

Sep. 25, 2011 Rise Set
Actual Time 6:15 AM ICT 6:21 PM ICT
Civil Twilight 5:54 AM ICT 6:42 PM ICT
Nautical Twilight 5:30 AM ICT 7:06 PM ICT
Astronomical Twilight 5:06 AM ICT 7:30 PM ICT
Moon 3:52 AM ICT (9/25) 4:25 PM ICT (9/25)
Length of Visible Light 12h 47m
Length of Day
12h 05m
Waning Crescent, 7% of the Moon is Illuminated
Sep 25
Waning Crescent
Sep 27
New
Oct 4
First Quarter
Oct 12
Full
Oct 20
Last Quarter

Hourly Weather History & Observations

Time (ICT) Temp. Heat Index Dew Point Humidity Pressure Visibility Wind Dir Wind Speed Gust Speed Precip Events Conditions
12:00 AM 78.8 °F - 73.4 °F 83% 29.89 in 5.0 mi WNW 13.8 mph - N/A   Mostly Cloudy
12:30 AM 78.8 °F - 73.4 °F 83% 29.86 in 5.0 mi West 13.8 mph - N/A   Mostly Cloudy
1:00 AM 81 °F - 74 °F 75% 29.85 in 6 mi NW 10.4 mph - -   Partly Cloudy
1:00 AM 78.8 °F - 73.4 °F 83% 29.86 in 5.0 mi NW 10.4 mph - N/A   Mostly Cloudy
1:30 AM 78.8 °F - 73.4 °F 83% 29.86 in 5.0 mi WNW 10.4 mph - N/A   Mostly Cloudy
2:00 AM 78.8 °F - 73.4 °F 83% 29.83 in 5.0 mi NNW 11.5 mph - N/A   Mostly Cloudy
2:30 AM 78.8 °F - 73.4 °F 83% 29.83 in 5.0 mi WNW 5.8 mph - N/A   Mostly Cloudy
3:00 AM 78.8 °F - 73.4 °F 83% 29.83 in 5.0 mi WNW 5.8 mph - N/A   Mostly Cloudy
3:30 AM 78.8 °F - 71.6 °F 78% 29.86 in - WNW 3.5 mph - N/A   Mostly Cloudy
4:00 AM 78.8 °F - 71.6 °F 78% 29.86 in 5.0 mi WNW 3.5 mph - N/A   Mostly Cloudy
4:30 AM 78.8 °F - 71.6 °F 78% 29.86 in 5.0 mi NNW 5.8 mph - N/A   Mostly Cloudy
5:00 AM 78.8 °F - 71.6 °F 78% 29.86 in 5.0 mi NNW 5.8 mph - N/A   Mostly Cloudy
5:30 AM 78.8 °F - 71.6 °F 78% 29.86 in 5.0 mi NNW 5.8 mph - N/A   Mostly Cloudy
6:00 AM 78.8 °F - 73.4 °F 83% 29.86 in 5.0 mi Calm Calm - N/A   Mostly Cloudy
6:30 AM 77.0 °F - 73.4 °F 89% 29.86 in 5.0 mi Calm Calm - N/A   Mostly Cloudy
7:00 AM 77 °F - 75 °F 92% 29.82 in 6 mi Calm Calm - -   Scattered Clouds
7:00 AM 77.0 °F - 73.4 °F 89% 29.86 in 5.0 mi Calm Calm - N/A   Mostly Cloudy
7:30 AM 78.8 °F - 73.4 °F 83% 29.89 in 5.0 mi Calm Calm - N/A   Mostly Cloudy
8:00 AM 78.8 °F - 73.4 °F 83% 29.89 in 5.0 mi NNW 5.8 mph - N/A   Mostly Cloudy
8:30 AM 78.8 °F - 73.4 °F 83% 29.92 in 6.2 mi NNW 5.8 mph - N/A   Mostly Cloudy
9:30 AM 80.6 °F 85.4 °F 73.4 °F 79% 29.92 in 6.2 mi WNW 5.8 mph - N/A   Mostly Cloudy
10:00 AM 82.4 °F 89.5 °F 75.2 °F 79% 29.92 in 6.2 mi WNW 10.4 mph - N/A   Mostly Cloudy
10:30 AM 84.2 °F 90.9 °F 73.4 °F 70% 29.92 in 6.2 mi WNW 11.5 mph - N/A   Mostly Cloudy
11:00 AM 84.2 °F 92.3 °F 75.2 °F 74% 29.92 in 6.2 mi WNW 11.5 mph - N/A   Mostly Cloudy
11:30 AM 84.2 °F 92.3 °F 75.2 °F 74% 29.92 in 6.2 mi WNW 10.4 mph - N/A   Mostly Cloudy
12:00 PM 86.0 °F 93.4 °F 73.4 °F 66% 29.89 in 6.2 mi WNW 12.7 mph - N/A   Mostly Cloudy
12:30 PM 86.0 °F 93.4 °F 73.4 °F 66% 29.89 in 6.2 mi NW 11.5 mph - N/A   Mostly Cloudy
1:00 PM 86.0 °F 93.4 °F 73.4 °F 66% 29.86 in 6.2 mi WNW 13.8 mph - N/A   Mostly Cloudy
1:30 PM 86.0 °F 93.4 °F 73.4 °F 66% 29.86 in 6.2 mi West 13.8 mph - N/A   Mostly Cloudy
2:00 PM 86.0 °F 95.1 °F 75.2 °F 70% 29.83 in 6.2 mi West 11.5 mph - N/A   Mostly Cloudy
2:30 PM 86.0 °F 95.1 °F 75.2 °F 70% 29.83 in 6.2 mi West 15.0 mph - N/A   Mostly Cloudy
3:00 PM 86.0 °F 95.1 °F 75.2 °F 70% 29.83 in 6.2 mi WNW 13.8 mph - N/A   Mostly Cloudy
3:30 PM 86.0 °F 93.4 °F 73.4 °F 66% 29.83 in 6.2 mi West 15.0 mph - N/A   Mostly Cloudy
4:00 PM 86.0 °F 95.1 °F 75.2 °F 70% 29.83 in 6.2 mi WNW 13.8 mph - N/A   Mostly Cloudy
4:30 PM 86.0 °F 95.1 °F 75.2 °F 70% 29.83 in 6.2 mi West 15.0 mph - N/A   Mostly Cloudy
5:00 PM 84.2 °F 90.9 °F 73.4 °F 70% 29.83 in 6.2 mi WNW 11.5 mph - N/A   Mostly Cloudy
5:30 PM 82.4 °F 89.5 °F 75.2 °F 79% 29.83 in 6.2 mi WNW 9.2 mph - N/A   Mostly Cloudy
6:00 PM 82.4 °F 89.5 °F 75.2 °F 79% 29.83 in 6.2 mi West 13.8 mph - N/A   Mostly Cloudy
6:30 PM 80.6 °F 87.1 °F 77.0 °F 89% 29.83 in 5.0 mi WNW 11.5 mph - N/A   Mostly Cloudy
7:00 PM 83 °F - 77 °F 79% 29.81 in 6 mi WNW 9.2 mph - - Rain Light Rain
7:00 PM 80.6 °F 86.2 °F 75.2 °F 84% 29.83 in 5.0 mi WNW 13.8 mph - N/A   Mostly Cloudy
7:30 PM 78.8 °F - 73.4 °F 83% 29.86 in 1.2 mi WNW 9.2 mph - N/A Rain Rain
8:00 PM 77.0 °F - 73.4 °F 89% 29.86 in 4.3 mi NNW 5.8 mph - N/A Rain Light Rain
8:30 PM 77.0 °F - 73.4 °F 89% 29.86 in 4.3 mi Calm Calm - N/A   Mostly Cloudy
9:00 PM 77.0 °F - 73.4 °F 89% 29.86 in 4.3 mi Variable 2.3 mph - N/A   Mostly Cloudy
9:30 PM 78.8 °F - 73.4 °F 83% 29.89 in 4.3 mi NW 5.8 mph - N/A   Mostly Cloudy
10:00 PM 78.8 °F - 73.4 °F 83% 29.89 in 4.3 mi NW 4.6 mph - N/A   Mostly Cloudy
10:30 PM 78.8 °F - 73.4 °F 83% 29.89 in 4.3 mi NNW 5.8 mph - N/A   Mostly Cloudy
11:00 PM 78.8 °F - 73.4 °F 83% 29.89 in 4.3 mi WNW 6.9 mph - N/A   Mostly Cloudy
11:30 PM 77.0 °F - 71.6 °F 83% 29.89 in 3.1 mi WNW 10.4 mph - N/A Rain Light Rain